Weather in Mozhayskoe

Russia / Voronezh Oblast     51°19′06″N   39°39′37″E
temp.,
°C
wind,
m/s
gust,
m/s
humid.,
%
clouds,
%
prec.,
mm/h
press.,
hPa
HPBL,
m
19 september, sun
sun1900:00+8e71469100 0.0 1019421
03:00+9ese81667100 0.0 1017475
06:00+10ese71453100 0.1 1016527
09:00+12ese81546100 0.3 1015621
12:00+15ese91248100 0.1 1014896
15:00+14se81365100 1.1 1013862
18:00+12ese91777100 2.7 1011709
21:00+13ese91676100 4.9 1010695
20 september, mon
mon2000:00+13se91589100 2.7 1009937
03:00+12se71489100 2.9 1009615
06:00+12ese51193100 0.0 1009416
09:00+15se699097 0.1 1008510
12:00+17se6875100 0.9 1007396
15:00+19ssw695995 3.6 10071159
18:00+12w69742 0.3 1010375
21:00+11nw1173100 0.3 101266
21 september, tue
tue2100:00+11sse2373100 0.0 101291
03:00+11s2576100 0.0 1012178
06:00+11sw3670100 0.0 1012225
09:00+13sw455936 0.0 1012684
12:00+14sw5554100 0.0 10121153
15:00+13w4466100 0.0 1013809
18:00+12w347197 0.0 1013438
21:00+11w3583100 0.0 1013301
22 september, wed
wed2200:00+10sw228790 0.1 101391
03:00+10w239052 1.6 1013174
06:00+8w3592100 0.0 1014224
09:00+10wnw447655 0.0 1015615
12:00+12sw335664 0.0 10151308
15:00+11w436038 0.0 1016856
18:00+10w346633 0.0 1016107
21:00+8nw237480 0.0 101760
23 september, thu
thu2300:00+9nnw2370100 0.0 1016148
03:00+8nw1171100 0.0 101663
06:00+8nne1172100 0.0 101541
09:00+10ene1165100 0.0 1015241
12:00+14se1252100 0.0 1015856
15:00+15ese2346100 0.0 10141410
18:00+12e2259100 0.0 101312
21:00+11nnw116474 0.0 101311